Погода Березино

Погода Березино : погода сейчас, прогноз погоды и архив. Всё, что Вы хотите узнать о погоде Березино!

Хотите узнать прогноз погоды Березино? Тогда Вам сюда: Погода Березино

Поиск расширенной информации на нашем сайте:

Другие новости

Новости СМИ2

Главная страница сайта

Новости сайта

02.10.2013

Напоминаем, что на нашем новом сайте вы можете получить высокодетализированные прогнозы погоды по пунктам России, СНГ и мира (включающие важные для авиации метеовеличины, такие как направление и скорость ветра, видимость, явления погоды, количество и форма облачности, нижняя и верхняя граница облачности), а также ознакомиться с разнообразными материалами по авиационной метеорологии и подборкой полезных ссылок на эту тему.

Сайт Метеоцентр.Азия посвящён разработке технологий оптимизации авиаметеорологического обслуживания, включая проектирование и перспективное создание нескольких автоматизированных авиаметеорологических систем:
- система выпуска высокодетальных прогностических карт явлений погоды для нижнего воздушного пространства по России и ближнему зарубежью;
- система верификации прогнозов TAF (выпускаемых синоптиками официальных АМСГ РФ и ближнего зарубежья) и AUTOTAF (выпускаемых сайтом Метеоцентр.Азия) - выявление ошибок, онлайн-сопоставление с фактической погодой METAR, автоматическое внесение коррективов в прогнозы при резком отклонении фактической погоды от прогноза, подсчёт оправдываемости прогнозов по элементам и в целом;
- система обработки, анализа и отображения авиаметеорологической информации для применения провайдерами метеорологической информации.


Погода Березино - сегодня

Время (UTC), дата Ветер
(°,м/с) 
Видим.   Явления Облачность Т
(°С)
Тd
(°С)
f(%) Тe
(°С)
Pmin
(гПа)
dP
(гПа)
Po
(мм)
O2
(г/м3)
Тmin Tmax R s Состояние
почвы
06 17.02.17 240 (ЮЗ) 8000 м  дымка  10/10 240 м 
[St]
-2.8 -3.4 96 -2  1018.1  -1  749  305  -3.3      15  равномерный
мокрый или
старый снег
100% 
09 17.02.17 210 (ЮЗ) 1900 м  в посл. час туман  10/10 180 м 
[St]
-0.7 -1 98 -3  1017.2  -0.8  748  302           
12 17.02.17 220 (ЮЗ) 3100 м  дымка{туман}  10/10 270 м 
[St]
+2 +0.7 91 +1  1015.9  -1  748  299           
15 17.02.17 240 (ЮЗ) 10 км    10/0 средняя 
[As trans]
+3.3 +1.5 88 +2  1015.4  -0.4  747  297           
18 17.02.17 230 (ЮЗ) 10 км    10/10 570 м 
[St]
+2.7 +0.9 88 +2  1015.4  -0.1  747  298    +3.4    13   
21 17.02.17 210 (ЮЗ) 10 км    10/10 420 м 
[St]
+2 +0.7 91 +3  1015.8  0.4  748  299           
00 18.02.17 230 (ЮЗ) 8000 м  слаб. дождь  9/9 400 м 
[Sc]
+1.5 +1 96 +2  1015.8  -0.1  747  299           
03 18.02.17 250 (З) 5000 м  дымка{дождь}  10/10 240 м 
[St]
+1.1 +0.8 98 +2  1015.4  -0.4  747  300      0.1  13   
06 18.02.17 260 (З) 10 км  {дождь}  9/9 750 м 
[Sc]
+1.1 +0.6 96 1016.2  0.8  748  300  +0.9    0.1  12  равномерный
мокрый или
старый снег
100% 
09 18.02.17 250 (З) 10 км    10/10 330 м 
[St]
+1.9 +0.3 89 1016.8  0.6  748  299           
12 18.02.17 250 (З) 10 км  в посл. час ливневой дождь  10/10 330 м кучево-дожд. 
[Cb calv]
+2.1 +0.8 91 +1  1017  0.2  748  299           
18 18.02.17 260 (З) 10 км    9/9 630 м 
[Sc]
+1.9 -0.6 83 +1  1019.4  1.4  750  300    +2.4  0.1  10   
21 18.02.17 330 (СЗ) 10 км    9/9 750 м 
[Sc]
+1.2 -1.4 83 +1  1020.2  0.8  751  301           
00 19.02.17 240 (ЮЗ) 10 км    9/9 800 м 
[Sc]
+0.3 -2.1 84 -1  1020.7  0.4  751  303           
03 19.02.17 240 (ЮЗ) 10 км    9/9 700 м 
[Sc]
+0.1 -1.7 88 -1  1020.7  751  303        10   
06 19.02.17 250 (З) 10 км    9/9 630 м 
[Sc]
+0.9 -0.5 90 -1  1019.7  -0.9  750  301  -0.4      10  равномерный
мокрый или
старый снег
100% 
12 19.02.17 240 (ЮЗ) 6-12{11}  10 км    9/9 600 м 
[Sc]
+1.7 -1.4 80 -1  1018.1  -1.2  749  300           
15 19.02.17 210 (ЮЗ) 5-10{12}  10 км    9/9 600 м 
[Sc]
+1.6 -1.2 82 -1  1016.8  -1.3  748  300           
18 19.02.17 250 (З) 5-10{11}  10 км    9/9 630 м 
[Sc]
+1.1 -1.5 83 -2  1016.3  -0.5  748  300    +2     
21 19.02.17 230 (ЮЗ) 5-10{10}  10 км  слаб. ливневой снег  10/10 480 м кучево-дожд. 
[Cb calv]
+0.7 -0.7 90 -2  1015.6  -0.7  747  300           
00 20.02.17 250 (З) 4{10}  10 км  {ливн. осадки}  9/9 420 м 
[Sc]
+1.1 -0.9 86 -1  1014.6  -1  747  300           
03 20.02.17 230 (ЮЗ) 5-10{10}  10 км    9/9 600 м 
[Sc]
+1.3 -0.9 85 -1  1012.7  -1.9  745  299      0.1   
06 20.02.17 210 (ЮЗ) 4{10}  10 км    9/9 840 м 
[Sc]
+1.3 -1.3 83 -1  1012.4  -0.3  745  299  +0.6    0.1  равномерный
мокрый или
старый снег
100% 
09 20.02.17 220 (ЮЗ) 5-10{11}  10 км  в посл. час ливневой снег  10/10 300 м кучево-дожд. 
[Cb calv]
+2 -0.5 83 -1  1010.6  -1.6  744  298           
12 20.02.17 210 (ЮЗ) 4{11}  10 км  {ливн. осадки}  9/9 500 м 
[Sc]
+2.7 +0 82 +1  1008.4  -2.2  742  296           
Время (UTC), дата Ветер
(°,м/с) 
Видим.   Явления Облачность Т
(°С)
Тd
(°С)
f(%) Тe
(°С)
Pmin
(гПа)
dP
(гПа)
Po
(мм)
O2
(г/м3)
Тmin Tmax R s Состояние
почвы

Для получения пояснительной информации подведите курсор к названию столбца.

ПОГОДА Березино - архив

Всё, что Вы хотите узнать о погоде Березино - удобно и подробно!

Выберите нужную дату (начиная с 1 января 2015* года) и нажмите кнопку "Найти".
Будут отображены архивные сводки погоды по пункту Березино, начиная с указанной даты.


Отображать данные в формате CSV (для использования в таблицах Excel)


Внимание! Наш архив погоды предназначен исключительно для личного некоммерческого использования в познавательных целях. Если Вам необходимы официальные справки о состоянии погоды (для производственных, юридических, коммерческих и т.п. целей), обращайтесь в органы Росгидромета.

*Примечание: данная дата относится к архиву по метеостанциям СССР (Россия, СНГ, Балтия).
Архив по метеостанциям Зарубежной Европы и Азии (кроме Китая) хранится 10 дней, по другим регионам земного шара (Китай, Африка, Америка, Австралия, Океания) - 1 день.

Березино - район местоположения метеостанции


Название, широта, долгота, высота метеостанции:
Березино 53.8°ш. 29°д. 154 м над ур. моря [Беларусь]

Дополнительная информация

В oтличие oт бoльшинства пoгoдных сайтoв мы публикуем пoдрoбную метеoинфoрмацию в детальнoм прoфессиoнальнoм фoрмате.

Характеристики температуры и влажнoсти вoздуха измеряются на высoте 2 м в тени вдали oт зданий и деревьев.
Скoрoсть ветра измеряется на высoте 10 м (на урoвне рoста челoвека скoрoсть ветра ниже в 1.5-2 раза). Если метеoстанция нахoдится в гoрoде или в лесу, тo скoрoсть ветра занижена на 2-4 м/с пo сравнению с oткрытым местoм. Скoрoсть ветра над акватoриями крупных рек и oзёр, а также на вершинах хoлмoв на 2-5 м/с выше, чем в oбычных услoвиях.
Атмoсфернoе давление в разных тoчках местнoсти мoжет значительнo oтличаться oт давления на метеoстанции, в зависимoсти oт услoвий рельефа (при пoдъёме на 10 м давление пoнижается примернo на 1 мм рт.ст.).